19:33
Airports
History
Links
Donate
Help keep this website running!
PayPal
Bitcoin
Information on this page is community maintained and may be outdated or inaccurate and is intended for reference only or PC simulator navigating!
Always use approved charts for navigating.
SWSK
Fazenda Sao Marco
Fazenda Sao Marco (SWSK)
Boa Vista, Roraima, Brazil (69380)
4
Lat/Lng:3° 2' 59" N / 60° 29' 2" W
3.049722 / -60.483889
Elevation:295'ft 90mMSL
ID / ICAO:SWSK
Runways:1
Longest:(16-34) 1,496.7m 4,910ft Grass
Distance To
Airport ID:
Nearby VORs <50NM
Nearby NDBs
Nearby WeatherUpdated 04-29-17 19:00 GMT
Nearby weather at SBBV, Boa Vista Intl located 20.0 nautical miles from SWSK
Altimeter: 29.83
Visibility: 6.2 statute miles
Wind: 5 knots (160°)
Temp: 32°c 90°f
Humidity: 59.1%

METAR: SBBV 291900Z 16005KT 9999 BKN035 FEW040TCU SCT070 32/23 Q1010

(Powered by phpweather)
Runway 16 / 34
Dimensions:1496.7 x 60.1m 4910' x 197'ft
Surface:Grass
Runway 16 [A]Runway 34 [B]
Heading:145°TH 325°TH
Lat:
Lng:
3° 3' 18.97"N
60° 29' 15.88"W
3° 2' 39.03"N
60° 28' 48.12"W
Google Map
Nearby Airports
4 Ouro Fino 18.0 NM
SWOF WSW 244°
(U) Pouso da Aguia 19.7 NM
SWPD SSW 201°
(C) Boa Vista Intl 20.0 NM
SBBV (WX) SW 225°
4 Novo Intento 20.8 NM
SWNN SSW 206°
4 Milho 23.8 NM
SJLT NNE 12°
4 Manoa - Pium 27.2 NM
SJLP E 100°
4 Lago Grande 1 28.6 NM
SJLK NNE 18°
VFR Chart
Flight Planning at SkyVector.com